Prescott, AZ

10:01 PM MST on September 24, 2017 (GMT -0700)
Love

Weather History for KPRC - August, 2012

Change the Weather History Date:

Monday, August 6, 2012

  Actual Average Record
Temperature  
Mean Temperature 78 °F 74 °F  
Max Temperature 90 °F 87 °F 98 °F (1995)
Min Temperature 66 °F 62 °F 52 °F (1953)
Degree Days  
Heating Degree Days 0    
Month to date heating degree days  
Since 1 July heating degree days  
Cooling Degree Days 13    
Month to date cooling degree days  
Year to date cooling degree days  
Growing Degree Days 28 (Base 50)    
Moisture  
Dew Point 52 °F    
Average Humidity 42    
Maximum Humidity 63    
Minimum Humidity 23    
Precipitation  
Precipitation 0.00 in 0.09 in 0.99 in (1948)
Month to date precipitation 0.53  
Year to date precipitation 7.57  
Sea Level Pressure  
Sea Level Pressure 30.03 in    
Wind  
Wind Speed 6 mph (West)    
Max Wind Speed 18 mph    
Max Gust Speed 24 mph    
Visibility 10 miles    
Events Thunderstorm    
T = Trace of Precipitation, MM = Missing Value Source: NWS Daily Summary

Daily Weather History Graph

Daily Weather History Graph

Search for Another Location

Airport or City:

Trip Planner

Search our weather history database for the weather conditions in past years. The results will help you decide how hot, cold, wet, or windy it might be!

Date:

Astronomy

Aug. 06, 2012 Rise Set
Actual Time 5:43 AM MST 7:26 PM MST
Civil Twilight 5:16 AM MST 7:53 PM MST
Nautical Twilight 4:43 AM MST 8:26 PM MST
Astronomical Twilight 4:08 AM MST 9:01 PM MST
Moon 9:53 PM MST (8/6) 10:21 AM MST (8/6)
Length of Visible Light 14h 37m
Length of Day
13h 42m
Waning Gibbous, 77% of the Moon is Illuminated
Aug 6
Waning Gibbous
Aug 9
Last Quarter
Aug 17
New
Aug 24
First Quarter
Aug 31
Full

Hourly Weather History & Observations

Time (MST) Temp. Heat Index Dew Point Humidity Pressure Visibility Wind Dir Wind Speed Gust Speed Precip Events Conditions
12:53 AM 66.9 °F - 54.0 °F 63% 30.04 in 10.0 mi South 5.8 mph - N/A   Clear
1:53 AM 73.0 °F - 54.0 °F 51% 30.04 in 10.0 mi South 5.8 mph 16.1 mph N/A   Clear
2:53 AM 72.0 °F - 55.0 °F 55% 30.01 in 10.0 mi ESE 6.9 mph - N/A   Clear
3:53 AM 71.1 °F - 54.0 °F 55% 30.00 in 10.0 mi NNE 8.1 mph - N/A   Clear
4:53 AM 71.1 °F - 54.0 °F 55% 30.01 in 10.0 mi North 4.6 mph - N/A   Clear
5:53 AM 69.1 °F - 55.0 °F 61% 30.02 in 10.0 mi Variable 3.5 mph - N/A   Clear
6:53 AM 71.1 °F - 55.0 °F 57% 30.04 in 10.0 mi West 3.5 mph - N/A   Mostly Cloudy
7:53 AM 72.0 °F - 55.0 °F 55% 30.06 in 10.0 mi WNW 5.8 mph - N/A   Mostly Cloudy
8:53 AM 73.0 °F - 55.9 °F 55% 30.09 in 10.0 mi Calm Calm - N/A   Mostly Cloudy
9:53 AM 77.0 °F - 55.0 °F 47% 30.09 in 10.0 mi NW 3.5 mph - N/A   Mostly Cloudy
10:53 AM 82.0 °F 81.3 °F 54.0 °F 38% 30.06 in 10.0 mi NNW 6.9 mph - N/A   Mostly Cloudy
11:53 AM 87.1 °F 84.9 °F 53.1 °F 31% 30.04 in 10.0 mi Variable 4.6 mph - N/A   Scattered Clouds
12:53 PM 89.1 °F - 50.0 °F 26% 30.01 in 10.0 mi Variable 4.6 mph - N/A   Scattered Clouds
1:53 PM 89.1 °F - 48.9 °F 25% 29.97 in 10.0 mi SSW 5.8 mph - N/A   Scattered Clouds
2:42 PM 86.0 °F - 51.8 °F 31% 30.25 in 10.0 mi SW 15.0 mph 21.9 mph N/A   Clear
2:53 PM 86.0 °F - 45.0 °F 24% 29.97 in 10.0 mi WSW 10.4 mph - N/A   Mostly Cloudy
3:53 PM 89.1 °F - 46.9 °F 23% 29.95 in 10.0 mi WSW 11.5 mph 17.3 mph N/A   Mostly Cloudy
4:53 PM 90.0 °F - 48.0 °F 24% 29.93 in 10.0 mi NW 18.4 mph 24.2 mph N/A   Scattered Clouds
5:37 PM 84.2 °F - 51.8 °F 33% 30.22 in 10.0 mi NW 15.0 mph - N/A   Partly Cloudy
5:53 PM 86.0 °F - 51.8 °F 31% 29.96 in 10.0 mi NW 11.5 mph - N/A Thunderstorm Thunderstorm
6:22 PM 84.2 °F - 48.2 °F 29% 30.24 in 10.0 mi Calm Calm - N/A   Scattered Clouds
6:53 PM 84.0 °F - 50.0 °F 31% 29.96 in 10.0 mi SSE 3.5 mph - N/A   Scattered Clouds
7:53 PM 82.9 °F - 50.0 °F 32% 29.97 in 10.0 mi Calm Calm - N/A   Mostly Cloudy
8:53 PM 77.0 °F - 53.1 °F 43% 30.00 in 10.0 mi WNW 5.8 mph - N/A   Clear
9:53 PM 73.9 °F - 52.0 °F 46% 29.99 in 10.0 mi Calm Calm - N/A   Clear
10:53 PM 72.0 °F - 52.0 °F 49% 29.99 in 10.0 mi SSW 5.8 mph - N/A   Clear
11:53 PM 70.0 °F - 53.1 °F 55% 29.97 in 10.0 mi SSW 4.6 mph - N/A   Clear